Weather History for Wright-Patt AFB, OH

Change the Weather History Date:

Saturday, October 8, 2011

  Actual Average Record
Temperature  
Mean Temperature 64 °F -  
Max Temperature 82 °F 66 °F 89 °F (2007)
Min Temperature 48 °F 43 °F 31 °F (2012)
Growing Degree Days 14 (Base 50)    
Moisture  
Dew Point 55 °F    
Average Humidity 74    
Maximum Humidity 99    
Minimum Humidity 45    
Precipitation  
Precipitation 0.00 in - - ()
Sea Level Pressure  
Sea Level Pressure 30.38 in    
Wind  
Wind Speed 1 mph (SSE)    
Max Wind Speed 5 mph    
Max Gust Speed -    
Visibility 10 miles    
Events Fog    
Averages and records for this station are not official NWS values.
T = Trace of Precipitation, MM = Missing Value Source: NWS Daily Summary

Daily Weather History Graph

Daily Weather History Graph

Search for Another Location

Airport:

Trip Planner

Search our weather history database for the weather conditions in past years. The results will help you decide how hot, cold, wet, or windy it might be!

Date:

Astronomy

Oct. 08, 2011 Rise Set
Actual Time 7:39 AM EDT 7:07 PM EDT
Civil Twilight 7:12 AM EDT 7:34 PM EDT
Nautical Twilight 6:40 AM EDT 8:06 PM EDT
Astronomical Twilight 6:09 AM EDT 8:37 PM EDT
Moon 5:17 PM EDT (10/8) 4:25 AM EDT (10/8)
Length of Visible Light 12h 22m
Length of Day
11h 28m
Waxing Gibbous, 90% of the Moon is Illuminated
Oct 8
Waxing Gibbous
Oct 11
Full
Oct 19
Last Quarter
Oct 26
New
Nov 2
First Quarter

Hourly Weather History & Observations

Time (EDT) Temp. Heat Index Dew Point Humidity Pressure Visibility Wind Dir Wind Speed Gust Speed Precip Events Conditions
12:55 AM 54.5 °F - 52.7 °F 94% 30.37 in 10.0 mi Calm Calm - N/A   Clear
1:55 AM 53.8 °F - 51.3 °F 91% 30.36 in 10.0 mi Calm Calm - N/A Fog Patches of Fog
2:55 AM 53.2 °F - 51.1 °F 92% 30.36 in 10.0 mi Calm Calm - N/A   Clear
3:55 AM 52.7 °F - 51.3 °F 95% 30.35 in 10.0 mi Calm Calm - N/A Fog Patches of Fog
4:55 AM 51.4 °F - 50.2 °F 95% 30.36 in 10.0 mi Calm Calm - N/A Fog Patches of Fog
5:55 AM 50.5 °F - 50.2 °F 99% 30.37 in 7.0 mi Calm Calm - N/A Fog Patches of Fog
6:55 AM 50.7 °F - 49.5 °F 95% 30.39 in 7.0 mi Calm Calm - N/A   Clear
7:55 AM 48.2 °F - 47.3 °F 97% 30.41 in 6.0 mi Calm Calm - N/A   Clear
8:55 AM 53.4 °F - 52.7 °F 97% 30.43 in 7.0 mi Calm Calm - N/A   Clear
9:55 AM 61.9 °F - 55.4 °F 79% 30.44 in 10.0 mi Variable 3.5 mph - N/A   Clear
10:55 AM 66.7 °F - 56.1 °F 69% 30.43 in 10.0 mi SSE 4.6 mph - N/A   Clear
11:55 AM 70.7 °F - 57.9 °F 64% 30.43 in 10.0 mi South 3.5 mph - N/A   Clear
12:55 PM 74.5 °F - 58.5 °F 57% 30.41 in 10.0 mi Calm Calm - N/A   Clear
1:55 PM 77.5 °F - 60.1 °F 55% 30.39 in 10.0 mi Calm Calm - N/A   Clear
2:55 PM 79.9 °F - 59.5 °F 50% 30.37 in 10.0 mi Variable 3.5 mph - N/A   Clear
3:55 PM 80.1 °F 81.0 °F 60.4 °F 51% 30.35 in 10.0 mi Calm Calm - N/A   Clear
4:55 PM 81.3 °F 81.7 °F 59.5 °F 47% 30.34 in 10.0 mi SW 3.5 mph - N/A   Clear
5:55 PM 80.1 °F 80.9 °F 59.9 °F 50% 30.33 in 10.0 mi NNW 4.6 mph - N/A   Clear
6:55 PM 77.2 °F - 54.5 °F 45% 30.33 in 10.0 mi SE 4.6 mph - N/A   Clear
7:55 PM 68.5 °F - 56.3 °F 65% 30.35 in 10.0 mi Calm Calm - N/A   Clear
8:55 PM 66.7 °F - 51.4 °F 58% 30.36 in 10.0 mi ESE 3.5 mph - N/A   Clear
9:55 PM 64.0 °F - 54.3 °F 71% 30.38 in 10.0 mi Calm Calm - N/A   Clear
10:55 PM 61.2 °F - 55.9 °F 83% 30.37 in 10.0 mi Calm Calm - N/A   Clear
11:55 PM 58.1 °F - 54.7 °F 88% 30.37 in 10.0 mi Calm Calm - N/A   Clear